| time (UTC) | temp F | wind direction | speed knots | gust knots | rain 1hr in | rain 24hr in | rain mn in | humidity % | barometer mb |
| 20260505041554 | 60 | 0 | 0.0 | 3.5 | 0.00 | 0.00 | 0.00 | 38 | 1000.6 |
| 20260505041048 | 60 | 57 | 0.0 | 3.5 | 0.00 | 0.00 | 0.00 | 38 | 1000.5 |
| 20260505040548 | 60 | 0 | 0.0 | 3.5 | 0.00 | 0.00 | 0.00 | 38 | 1000.3 |
| 20260505040056 | 60 | 0 | 0.0 | 6.1 | 0.00 | 0.00 | 0.00 | 39 | 1000.1 |
| 20260505035547 | 60 | 53 | 0.0 | 6.1 | 0.00 | 0.00 | 0.00 | 39 | 999.9 |
| 20260505035043 | 60 | 0 | 0.0 | 3.5 | 0.00 | 0.00 | 0.00 | 39 | 1000.1 |
| 20260505034553 | 61 | 0 | 0.0 | 2.6 | 0.00 | 0.00 | 0.00 | 40 | 999.9 |
| 20260505034048 | 61 | 0 | 0.0 | 2.6 | 0.00 | 0.00 | 0.00 | 42 | 1000.1 |
| 20260505033545 | 61 | 0 | 0.0 | 3.5 | 0.00 | 0.00 | 0.00 | 40 | 1000.0 |
| 20260505033058 | 61 | 0 | 0.0 | 3.5 | 0.00 | 0.00 | 0.00 | 40 | 1000.2 |
| 20260505032547 | 61 | 0 | 0.9 | 3.5 | 0.00 | 0.00 | 0.00 | 40 | 1000.3 |
| 20260505032045 | 61 | 0 | 0.0 | 3.5 | 0.00 | 0.00 | 0.00 | 41 | 1000.3 |
| 20260505031555 | 61 | 0 | 0.0 | 1.7 | 0.00 | 0.00 | 0.00 | 43 | 1000.3 |
| 20260505031047 | 61 | 0 | 0.0 | 2.6 | 0.00 | 0.00 | 0.00 | 42 | 1000.1 |
| 20260505030550 | 62 | 0 | 0.0 | 2.6 | 0.00 | 0.00 | 0.00 | 43 | 999.8 |
| 20260505030055 | 62 | 0 | 0.0 | 2.6 | 0.00 | 0.00 | 0.00 | 43 | 999.8 |
| 20260505025547 | 62 | 0 | 0.0 | 1.7 | 0.00 | 0.00 | 0.00 | 43 | 999.8 |
| 20260505025047 | 63 | 0 | 0.0 | 1.7 | 0.00 | 0.00 | 0.00 | 43 | 999.7 |
| 20260505024554 | 63 | 0 | 0.0 | 1.7 | 0.00 | 0.00 | 0.00 | 42 | 999.7 |
| 20260505024046 | 63 | 0 | 0.0 | 2.6 | 0.00 | 0.00 | 0.00 | 42 | 999.7 |
| 20260505023546 | 64 | 0 | 0.0 | 3.5 | 0.00 | 0.00 | 0.00 | 42 | 999.8 |
| 20260505023054 | 64 | 0 | 0.0 | 6.1 | 0.00 | 0.00 | 0.00 | 41 | 999.5 |
| 20260505022548 | 65 | 16 | 0.9 | 6.1 | 0.00 | 0.00 | 0.00 | 43 | 999.4 |
| 20260505022051 | 65 | 67 | 0.0 | 5.2 | 0.00 | 0.00 | 0.00 | 42 | 999.1 |
| 20260505021600 | 65 | 0 | 0.0 | 6.1 | 0.00 | 0.00 | 0.00 | 42 | 999.0 |
| 20260505021045 | 65 | 329 | 0.9 | 6.1 | 0.00 | 0.00 | 0.00 | 42 | 998.9 |
| 20260505020545 | 66 | 0 | 0.0 | 5.2 | 0.00 | 0.00 | 0.00 | 41 | 998.6 |
| 20260505020054 | 66 | 0 | 0.0 | 3.5 | 0.00 | 0.00 | 0.00 | 42 | 998.6 |
| 20260505015546 | 66 | 325 | 0.0 | 2.6 | 0.00 | 0.00 | 0.00 | 44 | 998.5 |
| 20260505015047 | 67 | 0 | 0.0 | 2.6 | 0.00 | 0.00 | 0.00 | 44 | 998.3 |
| 20260505014558 | 67 | 0 | 0.0 | 2.6 | 0.00 | 0.00 | 0.00 | 44 | 998.2 |
| 20260505014047 | 67 | 330 | 0.0 | 1.7 | 0.00 | 0.00 | 0.00 | 45 | 998.0 |
| 20260505013547 | 67 | 0 | 0.0 | 0.9 | 0.00 | 0.00 | 0.00 | 45 | 997.9 |
| 20260505013053 | 68 | 0 | 0.0 | 3.5 | 0.00 | 0.00 | 0.00 | 44 | 997.6 |
| 20260505012547 | 68 | 0 | 0.0 | 4.3 | 0.00 | 0.00 | 0.00 | 45 | 997.5 |
| 20260505012047 | 68 | 296 | 0.0 | 4.3 | 0.00 | 0.00 | 0.00 | 44 | 997.2 |
| 20260505011552 | 69 | 0 | 0.0 | 4.3 | 0.00 | 0.00 | 0.00 | 44 | 996.9 |
| 20260505011048 | 69 | 0 | 0.0 | 2.6 | 0.00 | 0.00 | 0.00 | 44 | 996.8 |
| 20260505010546 | 69 | 255 | 0.0 | 2.6 | 0.00 | 0.00 | 0.00 | 43 | 996.6 |
| 20260505010109 | 70 | 0 | 0.0 | 2.6 | 0.00 | 0.00 | 0.00 | 44 | 996.5 |
| 20260505005547 | 70 | 29 | 0.0 | 2.6 | 0.00 | 0.00 | 0.00 | 44 | 996.5 |
| 20260505005046 | 70 | 0 | 0.0 | 3.5 | 0.00 | 0.00 | 0.00 | 45 | 996.3 |
| 20260505004550 | 71 | 222 | 0.0 | 3.5 | 0.00 | 0.00 | 0.00 | 45 | 996.0 |
| 20260505004045 | 71 | 215 | 0.9 | 2.6 | 0.00 | 0.00 | 0.00 | 46 | 995.8 |
| 20260505003542 | 71 | 218 | 0.0 | 2.6 | 0.00 | 0.00 | 0.00 | 46 | 995.7 |
| 20260505003059 | 72 | 211 | 0.9 | 2.6 | 0.00 | 0.00 | 0.00 | 45 | 995.4 |
| 20260505002548 | 72 | 217 | 0.0 | 2.6 | 0.00 | 0.00 | 0.00 | 43 | 995.1 |
| 20260505002048 | 72 | 0 | 0.0 | 1.7 | 0.00 | 0.00 | 0.00 | 43 | 995.1 |
| 20260505001552 | 72 | 198 | 0.0 | 2.6 | 0.00 | 0.00 | 0.00 | 40 | 995.0 |
| 20260505001048 | 72 | 0 | 0.0 | 2.6 | 0.00 | 0.00 | 0.00 | 40 | 995.1 |
| 20260505000546 | 73 | 0 | 0.0 | 2.6 | 0.00 | 0.00 | 0.00 | 40 | 995.1 |
| 20260505000052 | 73 | 0 | 0.0 | 3.5 | 0.00 | 0.00 | 0.00 | 40 | 995.2 |
| 20260504235548 | 73 | 0 | 0.0 | 3.5 | 0.00 | 0.00 | 0.00 | 40 | 995.2 |
| 20260504235048 | 73 | 0 | 0.0 | 3.5 | 0.00 | 0.00 | 0.00 | 40 | 995.3 |
| 20260504234554 | 73 | 0 | 0.0 | 2.6 | 0.00 | 0.00 | 0.00 | 39 | 995.2 |
| 20260504234046 | 73 | 215 | 0.0 | 2.6 | 0.00 | 0.00 | 0.00 | 39 | 995.3 |
| 20260504233546 | 73 | 0 | 0.0 | 7.0 | 0.00 | 0.00 | 0.00 | 38 | 995.5 |
| 20260504233056 | 74 | 226 | 0.0 | 8.7 | 0.00 | 0.00 | 0.00 | 39 | 995.5 |
| 20260504232545 | 74 | 213 | 2.6 | 8.7 | 0.00 | 0.00 | 0.00 | 37 | 995.6 |
| 20260504232044 | 74 | 233 | 2.6 | 8.7 | 0.00 | 0.00 | 0.00 | 36 | 995.7 |
| 20260504231557 | 75 | 201 | 3.5 | 15.6 | 0.00 | 0.00 | 0.00 | 35 | 996.0 |
| 20260504231042 | 75 | 221 | 6.1 | 15.6 | 0.00 | 0.00 | 0.00 | 35 | 996.0 |
| 20260504230549 | 75 | 211 | 0.9 | 4.3 | 0.00 | 0.00 | 0.00 | 39 | 995.8 |
| 20260504230122 | 75 | 208 | 0.9 | 4.3 | 0.00 | 0.00 | 0.00 | 37 | 995.8 |
| 20260504225548 | 76 | 213 | 0.0 | 6.1 | 0.00 | 0.00 | 0.00 | 37 | 995.7 |
| 20260504225046 | 76 | 211 | 1.7 | 7.8 | 0.00 | 0.00 | 0.00 | 37 | 995.8 |
| 20260504224550 | 76 | 0 | 0.9 | 7.8 | 0.00 | 0.00 | 0.00 | 36 | 995.8 |
| 20260504224047 | 76 | 209 | 2.6 | 7.8 | 0.00 | 0.00 | 0.00 | 36 | 995.9 |
| 20260504223551 | 76 | 249 | 2.6 | 7.0 | 0.00 | 0.00 | 0.00 | 35 | 995.9 |
| 20260504223100 | 76 | 238 | 2.6 | 7.0 | 0.00 | 0.00 | 0.00 | 37 | 995.8 |
| 20260504222547 | 77 | 209 | 0.9 | 6.1 | 0.00 | 0.00 | 0.00 | 34 | 995.8 |
| 20260504222044 | 77 | 0 | 0.9 | 6.1 | 0.00 | 0.00 | 0.00 | 35 | 995.9 |
| 20260504221603 | 77 | 214 | 2.6 | 7.0 | 0.00 | 0.00 | 0.00 | 35 | 996.0 |
| 20260504221046 | 77 | 219 | 2.6 | 7.0 | 0.00 | 0.00 | 0.00 | 36 | 996.0 |
| 20260504220546 | 76 | 209 | 1.7 | 7.0 | 0.00 | 0.00 | 0.00 | 36 | 996.1 |
| 20260504220057 | 77 | 215 | 0.9 | 3.5 | 0.00 | 0.00 | 0.00 | 34 | 996.1 |
| 20260504215546 | 77 | 0 | 0.0 | 8.7 | 0.00 | 0.00 | 0.00 | 35 | 996.1 |
| 20260504215047 | 76 | 0 | 1.7 | 11.3 | 0.00 | 0.00 | 0.00 | 35 | 996.2 |
| 20260504214600 | 76 | 208 | 4.3 | 11.3 | 0.00 | 0.00 | 0.00 | 32 | 996.2 |
| 20260504214046 | 77 | 220 | 2.6 | 14.8 | 0.00 | 0.00 | 0.00 | 36 | 996.3 |
| 20260504213547 | 77 | 259 | 3.5 | 14.8 | 0.00 | 0.00 | 0.00 | 34 | 996.2 |
| 20260504213103 | 77 | 208 | 3.5 | 13.0 | 0.00 | 0.00 | 0.00 | 33 | 996.2 |
| 20260504212547 | 77 | 220 | 3.5 | 13.0 | 0.00 | 0.00 | 0.00 | 33 | 996.3 |
| 20260504212046 | 78 | 221 | 2.6 | 12.2 | 0.00 | 0.00 | 0.00 | 33 | 996.4 |
| 20260504211551 | 78 | 182 | 2.6 | 12.2 | 0.00 | 0.00 | 0.00 | 34 | 996.3 |
| 20260504211047 | 78 | 233 | 1.7 | 7.8 | 0.00 | 0.00 | 0.00 | 35 | 996.4 |
| 20260504210545 | 77 | 227 | 4.3 | 7.8 | 0.00 | 0.00 | 0.00 | 36 | 996.6 |
| 20260504210054 | 78 | 183 | 1.7 | 7.8 | 0.00 | 0.00 | 0.00 | 33 | 996.6 |
| 20260504205548 | 78 | 0 | 1.7 | 7.8 | 0.00 | 0.00 | 0.00 | 34 | 996.7 |
| 20260504205046 | 78 | 187 | 3.5 | 7.8 | 0.00 | 0.00 | 0.00 | 32 | 996.7 |
| 20260504204559 | 79 | 217 | 2.6 | 8.7 | 0.00 | 0.00 | 0.00 | 33 | 996.7 |
| 20260504204048 | 79 | 257 | 1.7 | 10.4 | 0.00 | 0.00 | 0.00 | 33 | 996.7 |
| 20260504203548 | 78 | 227 | 4.3 | 14.8 | 0.00 | 0.00 | 0.00 | 34 | 996.9 |
| 20260504203054 | 78 | 229 | 6.1 | 14.8 | 0.00 | 0.00 | 0.00 | 34 | 996.8 |
| 20260504202548 | 79 | 221 | 3.5 | 10.4 | 0.00 | 0.00 | 0.00 | 32 | 997.0 |
| 20260504202046 | 79 | 216 | 4.3 | 9.6 | 0.00 | 0.00 | 0.00 | 30 | 997.0 |
| 20260504201554 | 79 | 234 | 2.6 | 8.7 | 0.00 | 0.00 | 0.00 | 34 | 997.0 |
| 20260504201047 | 80 | 223 | 1.7 | 7.0 | 0.00 | 0.00 | 0.00 | 32 | 997.3 |
| 20260504200546 | 79 | 257 | 2.6 | 7.8 | 0.00 | 0.00 | 0.00 | 32 | 997.3 |
| 20260504200052 | 78 | 194 | 2.6 | 10.4 | 0.00 | 0.00 | 0.00 | 31 | 997.2 |
| 20260504195546 | 77 | 209 | 3.5 | 10.4 | 0.00 | 0.00 | 0.00 | 33 | 997.2 |
| 20260504195047 | 78 | 199 | 4.3 | 10.4 | 0.00 | 0.00 | 0.00 | 33 | 997.2 |
| 20260504194556 | 78 | 215 | 5.2 | 12.2 | 0.00 | 0.00 | 0.00 | 35 | 997.4 |
| 20260504194047 | 78 | 249 | 3.5 | 12.2 | 0.00 | 0.00 | 0.00 | 32 | 997.4 |
| 20260504193548 | 78 | 215 | 4.3 | 13.9 | 0.00 | 0.00 | 0.00 | 32 | 997.4 |
| 20260504193050 | 78 | 248 | 5.2 | 13.9 | 0.00 | 0.00 | 0.00 | 34 | 997.4 |
| 20260504192546 | 77 | 199 | 6.1 | 13.9 | 0.00 | 0.00 | 0.00 | 32 | 997.4 |
| 20260504192047 | 77 | 184 | 3.5 | 10.4 | 0.00 | 0.00 | 0.00 | 32 | 997.5 |
| 20260504191601 | 78 | 271 | 3.5 | 9.6 | 0.00 | 0.00 | 0.00 | 30 | 997.5 |
| 20260504191044 | 77 | 262 | 3.5 | 12.2 | 0.00 | 0.00 | 0.00 | 32 | 997.6 |
| 20260504190544 | 76 | 204 | 6.1 | 12.2 | 0.00 | 0.00 | 0.00 | 35 | 997.5 |
| 20260504190050 | 77 | 211 | 6.1 | 12.2 | 0.00 | 0.00 | 0.00 | 30 | 997.5 |
| 20260504185543 | 78 | 209 | 4.3 | 13.0 | 0.00 | 0.00 | 0.00 | 32 | 997.7 |
| 20260504185042 | 77 | 252 | 3.5 | 13.0 | 0.00 | 0.00 | 0.00 | 35 | 997.6 |
| 20260504184550 | 76 | 259 | 6.1 | 13.0 | 0.00 | 0.00 | 0.00 | 36 | 997.8 |
| 20260504184044 | 77 | 224 | 6.1 | 13.0 | 0.00 | 0.00 | 0.00 | 31 | 997.8 |
| 20260504183546 | 77 | 232 | 3.5 | 11.3 | 0.00 | 0.00 | 0.00 | 35 | 997.9 |
| 20260504183053 | 77 | 264 | 3.5 | 8.7 | 0.00 | 0.00 | 0.00 | 35 | 998.0 |
| 20260504182545 | 76 | 192 | 2.6 | 8.7 | 0.00 | 0.00 | 0.00 | 35 | 998.0 |
| 20260504182047 | 76 | 217 | 4.3 | 13.0 | 0.00 | 0.00 | 0.00 | 37 | 998.0 |
| 20260504181552 | 76 | 208 | 3.5 | 13.0 | 0.00 | 0.00 | 0.00 | 36 | 998.1 |
| 20260504181045 | 75 | 231 | 4.3 | 9.6 | 0.00 | 0.00 | 0.00 | 33 | 998.2 |
| 20260504180547 | 75 | 208 | 5.2 | 15.6 | 0.00 | 0.00 | 0.00 | 35 | 998.1 |
| 20260504180055 | 75 | 211 | 4.3 | 15.6 | 0.00 | 0.00 | 0.00 | 35 | 998.2 |
| 20260504175548 | 75 | 204 | 4.3 | 11.3 | 0.00 | 0.00 | 0.00 | 34 | 998.1 |
| 20260504175048 | 75 | 217 | 4.3 | 15.6 | 0.00 | 0.00 | 0.00 | 34 | 998.3 |
| 20260504174550 | 75 | 245 | 4.3 | 15.6 | 0.00 | 0.00 | 0.00 | 37 | 998.3 |
| 20260504174043 | 75 | 214 | 2.6 | 12.2 | 0.00 | 0.00 | 0.00 | 34 | 998.4 |
| 20260504173545 | 74 | 263 | 5.2 | 13.0 | 0.00 | 0.00 | 0.00 | 37 | 998.6 |
| 20260504173052 | 74 | 184 | 6.1 | 13.0 | 0.00 | 0.00 | 0.00 | 37 | 998.6 |
| 20260504172542 | 75 | 191 | 3.5 | 11.3 | 0.00 | 0.00 | 0.00 | 35 | 998.7 |
| 20260504172048 | 74 | 188 | 4.3 | 11.3 | 0.00 | 0.00 | 0.00 | 34 | 998.9 |
| 20260504171558 | 73 | 198 | 4.3 | 12.2 | 0.00 | 0.00 | 0.00 | 39 | 998.9 |
| 20260504171044 | 73 | 212 | 7.0 | 13.9 | 0.00 | 0.00 | 0.00 | 36 | 999.0 |
| 20260504170548 | 73 | 203 | 4.3 | 13.9 | 0.00 | 0.00 | 0.00 | 35 | 998.9 |
| 20260504151048 | 70 | 217 | 4.3 | 9.6 | 0.00 | 0.00 | 0.00 | 38 | 1000.5 |
| 20260504150547 | 69 | 237 | 4.3 | 11.3 | 0.00 | 0.00 | 0.00 | 37 | 1000.5 |
| 20260504150108 | 68 | 194 | 6.1 | 11.3 | 0.00 | 0.00 | 0.00 | 42 | 1000.4 |
| 20260504141045 | 63 | 231 | 3.5 | 8.7 | 0.00 | 0.00 | 0.00 | 51 | 1000.9 |
| 20260504140545 | 63 | 190 | 4.3 | 8.7 | 0.00 | 0.00 | 0.00 | 52 | 1001.0 |
| 20260504130543 | 57 | 211 | 2.6 | 6.1 | 0.00 | 0.00 | 0.00 | 65 | 1001.6 |
| 20260504110545 | 46 | 209 | 0.9 | 3.5 | 0.00 | 0.00 | 0.00 | 89 | 1001.7 |
| 20260504100540 | 46 | 0 | 0.0 | 0.0 | 0.00 | 0.00 | 0.00 | 87 | 1001.8 |
| 20260504081554 | 50 | 0 | 0.0 | 0.0 | 0.00 | 0.00 | 0.00 | 76 | 1002.7 |
| 20260504081041 | 50 | 0 | 0.0 | 0.0 | 0.00 | 0.00 | 0.00 | 76 | 1002.8 |
| 20260504080543 | 50 | 0 | 0.0 | 0.9 | 0.00 | 0.00 | 0.00 | 76 | 1002.6 |
| 20260504080109 | 50 | 0 | 0.0 | 0.9 | 0.00 | 0.00 | 0.00 | 77 | 1002.7 |
| 20260504050546 | 54 | 0 | 0.0 | 0.0 | 0.00 | 0.00 | 0.00 | 72 | 1004.0 |
| 20260504045544 | 55 | 0 | 0.0 | 0.0 | 0.00 | 0.00 | 0.00 | 70 | 1004.0 |
| 20260504045047 | 55 | 0 | 0.0 | 0.0 | 0.00 | 0.00 | 0.00 | 69 | 1004.1 |
| 20260504044552 | 55 | 0 | 0.0 | 0.0 | 0.00 | 0.00 | 0.00 | 68 | 1004.2 |
| 20260504044048 | 55 | 0 | 0.0 | 1.7 | 0.00 | 0.00 | 0.00 | 67 | 1004.0 |
| 20260504043547 | 56 | 0 | 0.0 | 2.6 | 0.00 | 0.00 | 0.00 | 68 | 1004.1 |
| 20260504043051 | 56 | 0 | 0.0 | 2.6 | 0.00 | 0.00 | 0.00 | 67 | 1003.9 |